Retour au catalogue

KUIPER-00286

ActifCommunicationsLEO
NORAD 68590·PAYLOAD·🇺🇸 United States

Lancé Apr 4, 2026 depuis Cape Canaveral Space Force Station

Loading…

Prochains Passages (prochaines 24 heures)

TLE

FraisSource: CelesTrak SupGP

Époque: Sep 14, 2026, 19:42 UTC

1 68590C 26072T   26257.82130787 -.00002119  00000+0 -27736-3 0  2572
2 68590  51.8996 134.3078 0000830 105.3997 208.2538 14.79927296    14

Suivez KUIPER-00286 en temps réel avec AllMySat

Download on the App Store